Location: Lake Almanor
(40.2485°N, 121.1442°W)
Time: 08:12:16
(UTC-08:00)

STARLINK-1107 - Pass Details

Date: 30 January 2020
Orbit: 345 x 354 km, 53.0° (Epoch: 18 February)

Event Time Altitude Azimuth Distance (km) Brightness Sun altitude
Rises 17:46:53 0° 319° (NW) 2,177 7.0 -5.6°
Reaches altitude 10° 17:49:25 10° 342° (NNW) 1,331 5.6 -6.0°
Maximum altitude 17:51:24 16° 24° (NNE) 1,031 4.7 -6.4°
Drops below altitude 10° 17:53:22 10° 66° (ENE) 1,328 4.9 -6.7°
Enters shadow 17:53:37 - 69° (ENE) 1,397 5.0 -6.8°
